Terug naar catalogus

STARLINK-32566

ActiefCommunicatieVLEO
NORAD 61958·PAYLOAD·🇺🇸 United States

Gelanceerd Nov 14, 2024 vanaf Vandenberg Space Force Base

Loading…

Volgende Passages (komende 24 uur)

TLE

VersSource: CelesTrak SupGP

Epoch: Sep 15, 2026, 03:35 UTC

1 61958C 24209V   26258.14979167  .00054290  00000+0  16034-2 0  2586
2 61958  53.1597 332.9366 0001211  95.4897  19.9391 15.34376005    17

Volg STARLINK-32566 in realtime met AllMySat

Download on the App Store